INSAT-3D

Last updated on Sat Dec 13 2025 00:02:23 GMT+0000 (Coordinated Universal Time)

1 39216U 13038B 25345.80265638 -.00000331 00000+0 00000+0 0 9999 2 39216 1.4427 85.0027 0001504 164.0419 250.2090 1.00270347 45201
UTC large
Height (km)
Speed (km/s)
/
Latitude / Longitude
Inclination (degrees)
Orbital Period (minutes)
Azimuth
Elevation
Range (km)
Doppler Factor

Next 0 passes for location: London (51.5072 / 0.1276)

Sorry there are no passes over London.